TimeMDT,TemperatureF,Dew PointF,Humidity,Sea Level PressureIn,VisibilityMPH,Wind Direction,Wind SpeedMPH,Gust SpeedMPH,PrecipitationIn,Events,Conditions,WindDirDegrees,DateUTC
12:15 AM,50.0,35.6,58,29.78,10.0,WNW,6.9,-,N/A,,Overcast,290,2013-09-22 06:15:00
12:35 AM,51.8,35.6,54,29.79,10.0,NNW,6.9,-,N/A,,Overcast,340,2013-09-22 06:35:00
12:55 AM,51.8,35.6,54,29.79,10.0,Calm,Calm,-,N/A,,Overcast,0,2013-09-22 06:55:00
1:15 AM,51.8,37.4,58,29.79,10.0,Calm,Calm,-,N/A,,Overcast,0,2013-09-22 07:15:00
1:35 AM,51.8,37.4,58,29.79,10.0,NNW,8.1,-,N/A,,Overcast,330,2013-09-22 07:35:00
1:55 AM,50.0,37.4,62,29.78,10.0,NNW,9.2,-,N/A,,Overcast,330,2013-09-22 07:55:00
2:15 AM,51.8,37.4,58,29.78,10.0,North,6.9,-,N/A,,Overcast,10,2013-09-22 08:15:00
2:35 AM,51.8,37.4,58,29.77,10.0,NNE,4.6,-,N/A,,Overcast,20,2013-09-22 08:35:00
2:55 AM,53.6,37.4,54,29.77,10.0,North,4.6,-,N/A,,Overcast,10,2013-09-22 08:55:00
3:15 AM,51.8,39.2,62,29.76,10.0,NNW,8.1,-,N/A,,Overcast,330,2013-09-22 09:15:00
3:35 AM,50.0,39.2,66,29.76,10.0,North,8.1,-,N/A,,Overcast,360,2013-09-22 09:35:00
3:55 AM,50.0,39.2,66,29.76,10.0,North,8.1,-,N/A,,Overcast,360,2013-09-22 09:55:00
4:15 AM,50.0,39.2,66,29.76,10.0,Calm,Calm,-,N/A,,Scattered Clouds,0,2013-09-22 10:15:00
4:35 AM,48.2,39.2,71,29.76,10.0,Calm,Calm,-,N/A,,Scattered Clouds,0,2013-09-22 10:35:00
4:55 AM,50.0,39.2,66,29.76,10.0,Calm,Calm,-,N/A,,Mostly Cloudy,0,2013-09-22 10:55:00
5:15 AM,50.0,39.2,66,29.76,10.0,ENE,3.5,-,N/A,,Mostly Cloudy,70,2013-09-22 11:15:00
5:35 AM,48.2,39.2,71,29.76,10.0,ENE,4.6,-,N/A,,Mostly Cloudy,70,2013-09-22 11:35:00
5:55 AM,48.2,39.2,71,29.77,10.0,Calm,Calm,-,N/A,,Mostly Cloudy,0,2013-09-22 11:55:00
6:15 AM,48.2,39.2,71,29.76,10.0,North,3.5,-,N/A,,Mostly Cloudy,10,2013-09-22 12:15:00
6:35 AM,46.4,39.2,76,29.77,10.0,North,4.6,-,N/A,,Scattered Clouds,350,2013-09-22 12:35:00
6:51 AM,46.4,41.0,81,29.76,10.0,Calm,Calm,-,N/A,,Scattered Clouds,0,2013-09-22 12:51:00
7:51 AM,44.6,41.0,87,29.77,10.0,Calm,Calm,-,N/A,,Scattered Clouds,0,2013-09-22 13:51:00
8:51 AM,-9999,-9999,N/A,29.76,10.0,Calm,Calm,-,N/A,,Mostly Cloudy,0,2013-09-22 14:51:00
9:53 AM,53.6,42.8,67,29.77,10.0,Calm,Calm,-,N/A,,Mostly Cloudy,0,2013-09-22 15:53:00
10:51 AM,55.4,39.2,54,29.79,10.0,Calm,Calm,-,N/A,,Mostly Cloudy,0,2013-09-22 16:51:00
11:52 AM,60.8,35.6,39,29.77,10.0,Calm,Calm,-,N/A,,Partly Cloudy,0,2013-09-22 17:52:00
1:55 PM,64.4,33.8,32,29.73,10.0,South,10.4,19.6,N/A,,Scattered Clouds,190,2013-09-22 19:55:00
2:52 PM,68.0,26.6,21,29.71,10.0,SW,19.6,24.2,N/A,,Scattered Clouds,220,2013-09-22 20:52:00
3:53 PM,66.2,32.0,28,29.72,10.0,SW,16.1,19.6,N/A,,Scattered Clouds,220,2013-09-22 21:53:00
4:54 PM,62.6,33.8,34,29.72,10.0,West,15.0,-,N/A,,Scattered Clouds,270,2013-09-22 22:54:00
5:51 PM,62.6,33.8,34,29.72,10.0,SW,12.7,18.4,N/A,,Scattered Clouds,230,2013-09-22 23:51:00
6:54 PM,57.2,33.8,41,29.75,10.0,WSW,8.1,-,N/A,,Scattered Clouds,250,2013-09-23 00:54:00
7:53 PM,53.6,37.4,54,29.78,10.0,Calm,Calm,-,N/A,,Clear,0,2013-09-23 01:53:00
8:55 PM,53.6,35.6,51,29.80,10.0,West,8.1,16.1,N/A,,Clear,260,2013-09-23 02:55:00
9:15 PM,51.8,35.6,54,29.81,10.0,SW,9.2,17.3,N/A,,Clear,230,2013-09-23 03:15:00
9:35 PM,51.8,35.6,54,29.83,10.0,West,10.4,18.4,N/A,,Partly Cloudy,260,2013-09-23 03:35:00
9:55 PM,50.0,35.6,58,29.83,10.0,SSW,9.2,-,N/A,,Clear,210,2013-09-23 03:55:00
10:15 PM,48.2,35.6,62,29.83,10.0,West,15.0,19.6,N/A,,Clear,260,2013-09-23 04:15:00
10:55 PM,44.6,35.6,71,29.86,10.0,SW,6.9,-,N/A,,Clear,220,2013-09-23 04:55:00
11:35 PM,44.6,33.8,66,29.87,10.0,SSW,5.8,-,N/A,,Scattered Clouds,200,2013-09-23 05:35:00
11:55 PM,44.6,33.8,66,29.88,10.0,SSW,8.1,-,N/A,,Partly Cloudy,210,2013-09-23 05:55:00